« Back
NWS Peachtree City, Ga » Text Product » GA Regional Weather Roundup


Printer-friendly Version
Current Version              Previous Versions:   1  2  3  4  5  6  7  8  9  

Regional Weather Roundup

428
ASUS42 KFFC 251003
RWRGA
WEATHER ROUNDUP FOR GEORGIA
NATIONAL WEATHER SERVICE PEACHTREE CITY GA
600 AM EDT SAT OCT 25 2014

NOTE: "FAIR" INDICATES FEW OR NO CLOUDS BELOW 12,000 FEET WITH NO
SIGNIFICANT WEATHER AND/OR OBSTRUCTIONS TO VISIBILITY.

* = USE WITH CAUTION. THE STATIONS MARKED WITH AN ASTERISK MAY NOT
REPORT WEATHER SUCH AS PRECIPITATION, FOG, OR THUNDER AND ARE NOT
QUALITY CONTROLLED BY NWS.

THE REMARK "TC" DENOTES TEMPERATURE READING IN DEGREES CELSIUS.

GAZ001>058-251100-
NORTH GEORGIA

CITY           SKY/WX    TMP DP  RH WIND       PRES   REMARKS
ATLANTA        CLEAR     49  43  80 NW8       30.03R
ATHENS         CLEAR     46  44  93 CALM      30.02R
CHAMBLEE       CLEAR     43  40  89 CALM      30.03R
PEACHTREE CITY CLEAR     43  41  93 CALM      30.04R
ROME           CLEAR     41  39  93 CALM      30.07R
WEST ATLANTA   CLEAR     50  42  74 NW3       30.04R
GAINESVILLE    CLEAR     47  44  90 CALM      30.04R
CARTERSVILLE   CLEAR     41  38  89 CALM      30.07R


CITY           SKY/WX    TMP DP  RH WIND       PRES   REMARKS
DALTON*        CLEAR     45  43  93 NW3       30.07R
MARIETTA       CLEAR     46  43  88 SW3       30.03S
$$

GAZ059>098-102>109-251100-
CENTRAL GEORGIA

CITY           SKY/WX    TMP DP  RH WIND       PRES   REMARKS
AUGUSTA-BUSH   CLEAR     40  39  97 CALM      30.01S
AUGUSTA-DANIEL CLEAR     51  47  86 N5        30.01S
COLUMBUS       CLEAR     52  43  71 N6        30.04R
MACON          CLEAR     42  42 100 CALM      30.01R
ROBINS AFB     CLEAR     44  43  95 N5        30.00R


CITY           SKY/WX    TMP DP  RH WIND       PRES   REMARKS
LAGRANGE*      CLEAR     42  41  97 CALM      30.05S
SYLVANIA*      CLEAR     47  47  97 CALM      30.01S
MILLEDGEVILLE* CLEAR     45  45 100 CALM      30.01S
$$

GAZ099>101-110>166-251100-
SOUTH GEORGIA

CITY           SKY/WX    TMP DP  RH WIND       PRES   REMARKS
SAVANNAH       CLEAR     50  45  83 CALM      30.01R
VALDOSTA       CLEAR     46  41  82 CALM      30.00R HAZE
ALMA           CLEAR     46  44  93 CALM      30.00R FOG
ST SIMONS      CLEAR     50  49  96 CALM      29.99S
FT STEWART     CLEAR     46  44  93 CALM      29.99R
ALBANY         CLEAR     47  44  90 CALM      30.03R
HUNTER AFB     CLEAR     48  47  97 SW1       29.98S
MOODY AFB      CLEAR     46  44  93 CALM      29.99F
BRUNSWICK        N/A     48  46  93 CALM      30.00S VSB 1/2


CITY           SKY/WX    TMP DP  RH WIND       PRES   REMARKS
BAINBRIDGE*    CLEAR     48  46  93 CALM      30.01S
MOULTRIE*      CLEAR     50  48  93 CALM      30.01R
VIDALIA*       CLEAR     46  45  93 CALM      30.01R
WAYCROSS*      CLEAR     49  49  97 CALM      30.00S
DOUGLAS*       CLEAR     46  46 100 CALM      30.02S
$$



USA.gov is the U.S. government's official web portal to all federal, state and local government web resources and services.